{"data":{"norad_id":53043,"intl_designator":"2022-077A","name":"STARLINK-4362","alt_names":[],"object_type":"PAYLOAD","status":"ACTIVE","operator":null,"country":"US","launch_date":"2022-07-11","launch_site_code":"AFWTR","launch_vehicle":null,"mission":null,"orbit_class":"UNKNOWN","rcs_meters":null,"size_class":null,"mass_kg":null,"dimensions":null,"purposes":["comms"],"wikipedia_slug":null,"has_3d_model":false,"image_url":null,"decayed_at":null,"tle_current":{"epoch":"2026-05-25T01:43:11.584704Z","epoch_age_seconds":62846,"freshness":"FRESH","line1":"1 53043U 22077A   26145.07166186 -.00002367  00000+0 -16004-3 0  9999","line2":"2 53043  97.4467 324.9664 0001351 103.4910 256.6468 15.05658514212402","mean_motion":15.05658514,"eccentricity":0.0001351,"inclination_deg":97.4467,"raan_deg":324.9664,"arg_perigee_deg":103.491,"mean_anomaly_deg":256.6468,"bstar":-0.00016004,"rev_number":21240,"period_min":95.639216104483,"perigee_km":548.54911657389,"apogee_km":550.42096004864,"semimajor_km":6927.6220383113,"source":"CELESTRAK","updated_at":"2026-05-25T13:38:17.285344Z"}}}